This demonstration page uses our WeatherBlox Daily Observations layout. Learn more.

Left ArrowRight Arrow

44.89941, -97.11507

Hourly Observations for January 23, 2021

Temp ( °F °C ) Dew Point ( °F °C ) Humidity (%) Winds ( mph kmh ) Pressure ( in mb ) Visibility ( mi km ) Precip ( " mm )
12:53 am 00:53 Clear 14 -10 11 -11.7 88 88 S 7 11 30.18 1022 10 16 0.00 0.00
1:53 am 01:53 Clear 15 -9.4 12 -11.1 88 88 S 7 11 30.16 1021 10 16 0.00 0.00
2:53 am 02:53 Clear 14 -10 11 -11.7 88 88 S 9 15 30.16 1021 10 16 0.00 0.00
3:53 am 03:53 Clear 17 -8.3 14 -10 88 88 S 9 15 30.15 1021 10 16 0.00 0.00
4:53 am 04:53 Mostly Clear 15 -9.4 12 -11.1 88 88 SSE 9 15 30.14 1021 10 16 0.00 0.00
5:53 am 05:53 Cloudy 14 -10 13 -10.6 95 95 SSE 8 13 30.13 1020 10 16 0.00 0.00
6:53 am 06:53 Cloudy 17 -8.3 15 -9.4 92 92 SSE 10 17 30.12 1020 10 16 0.00 0.00
7:53 am 07:53 Cloudy 18 -7.8 16 -8.9 92 92 SSE 9 15 30.11 1020 10 16 0.00 0.00
8:21 am 08:21 Cloudy 19 -7.2 16 -8.9 88 88 SSE 10 17 30.15 1021 10 16 0.00 0.00
8:53 am 08:53 Cloudy with Light Snow 20 -6.7 17 -8.3 89 89 SSE 14 22 30.10 1019 4 6 0.00 0.00
8:59 am 08:59 Cloudy with Light Snow 20 -6.7 18 -7.8 92 92 S 14 22 30.15 1021 2 3 0.00 0.00
9:09 am 09:09 Cloudy with Light Snow 20 -6.7 18 -7.8 92 92 SSE 13 20 30.15 1021 1 2 0.00 0.00
9:25 am 09:25 Cloudy with Light Snow 20 -6.7 18 -7.8 92 92 SSE 15 24 30.15 1021 1 1 0.00 0.00
9:35 am 09:35 Cloudy with Light Snow 20 -6.7 18 -7.8 92 92 SSE 15 24 30.14 1021 1 2 0.00 0.00
9:44 am 09:44 Cloudy with Light Snow 20 -6.7 18 -7.8 92 92 SSE 13 20 30.15 1021 1 1 0.00 0.00
9:53 am 09:53 Cloudy with Light Snow 20 -6.7 18 -7.8 92 92 S 15 24 30.11 1020 1 1 0.00 0.00
10:18 am 10:18 Cloudy with Light Snow 22 -5.6 20 -6.7 92 92 S 14 22 30.14 1021 1 2 0.00 0.00
10:35 am 10:35 Cloudy with Light Snow 23 -5 21 -6.1 92 92 S 16 26 30.13 1020 2 2 0.00 0.00
10:43 am 10:43 Cloudy with Light Snow 23 -5 21 -6.1 92 92 S 17 28 30.13 1020 2 3 0.00 0.00
10:49 am 10:49 Cloudy with Light Snow 25 -4 21 -6 86 86 S 18 30 30.12 1020 2 2 0.00 0.00
10:50 am 10:50 Cloudy with Light Snow 24 -4.4 21 -6.1 88 88 S 16 26 30.09 1019 2 2 0.00 0.00
11:04 am 11:04 Cloudy with Light Snow 24 -4.4 21 -6.1 88 88 S 14 22 30.12 1020 2 3 0.00 0.00
11:20 am 11:20 Cloudy with Light Snow 23 -5 20 -6.7 88 88 S 17 28 30.12 1020 3 5 0.00 0.00
11:30 am 11:30 Windy with Snow Likely 23 -5 20 -6.7 88 88 S 21 33 30.11 1020 2 3 0.00 0.00
11:34 am 11:34 Windy with Snow Likely 23 -5 20 -6.7 88 88 S 22 35 30.11 1020 1 2 0.00 0.00
11:53 am 11:53 Cloudy with Light Snow 23 -5 20 -6.7 88 88 S 17 28 30.06 1018 1 1 0.00 0.00
12:12 pm 12:12 Windy with Snow Likely 24 -4.4 20 -6.7 84 84 S 23 37 30.07 1018 2 2 0.00 0.00
12:36 pm 12:36 Cloudy with Light Snow 24 -4.4 20 -6.7 84 84 S 18 30 30.06 1018 1 2 0.00 0.00
12:53 pm 12:53 Windy with Snow Likely 24 -4.4 20 -6.7 84 84 S 22 35 30.03 1017 1 2 0.00 0.00
1:16 pm 13:16 Cloudy with Light Snow 24 -4.4 20 -6.7 84 84 S 18 30 30.04 1017 2 2 0.00 0.00
1:24 pm 13:24 Cloudy with Light Snow 24 -4.4 20 -6.7 84 84 S 18 30 30.04 1017 1 2 0.01 0.25
1:53 pm 13:53 Cloudy with Light Snow 24 -4.4 20 -6.7 84 84 S 17 28 30.00 1016 1 2 0.01 0.25
2:21 pm 14:21 Cloudy with Light Snow 23 -5 20 -6.7 88 88 S 13 20 30.03 1017 1 2 0.00 0.00
2:23 pm 14:23 Cloudy with Light Snow 23 -5 20 -6.7 88 88 S 15 24 30.03 1017 1 1 0.00 0.00
2:39 pm 14:39 Cloudy with Light Snow 23 -5 20 -6.7 88 88 S 16 26 30.03 1017 1 2 0.00 0.00
2:42 pm 14:42 Cloudy with Light Snow 23 -5 20 -6.7 88 88 S 16 26 30.03 1017 2 2 0.00 0.00
2:50 pm 14:50 Cloudy with Light Snow 23 -5 19 -7 86 86 S 13 20 30.03 1017 1 2 0.00 0.00
2:53 pm 14:53 Cloudy with Light Snow 23 -5 20 -6.7 88 88 S 13 20 29.99 1016 1 2 0.00 0.00
3:00 pm 15:00 Cloudy with Light Snow 23 -5 20 -6.7 88 88 S 16 26 30.03 1017 1 2 0.00 0.00
3:13 pm 15:13 Cloudy with Light Snow 23 -5 20 -6.7 88 88 S 17 28 30.02 1016 2 2 0.00 0.00
3:23 pm 15:23 Cloudy with Light Snow 23 -5 20 -6.7 88 88 S 16 26 30.02 1016 3 4 0.00 0.00
3:34 pm 15:34 Cloudy with Light Snow 23 -5 20 -6.7 88 88 S 15 24 30.02 1016 3 5 0.00 0.00
3:40 pm 15:40 Cloudy with Light Snow 23 -5 20 -6.7 88 88 S 12 19 30.02 1016 2 3 0.00 0.00
3:46 pm 15:46 Cloudy with Light Snow 23 -5 20 -6.7 88 88 S 13 20 30.02 1016 1 2 0.00 0.00
3:53 pm 15:53 Cloudy with Light Snow 23 -5 20 -6.7 88 88 S 14 22 29.98 1015 1 2 0.01 0.25
4:06 pm 16:06 Cloudy with Light Snow 23 -5 20 -6.7 88 88 S 13 20 30.01 1016 2 2 0.00 0.00
4:14 pm 16:14 Cloudy with Light Snow 23 -5 20 -6.7 88 88 S 13 20 30.01 1016 1 2 0.00 0.00
4:34 pm 16:34 Cloudy with Light Snow 22 -5.6 20 -6.7 92 92 S 12 19 30.01 1016 1 1 0.00 0.00
4:45 pm 16:45 Cloudy with Light Snow 22 -5.6 20 -6.7 92 92 SSE 9 15 30.02 1017 1 2 0.00 0.00
4:48 pm 16:48 Cloudy with Light Snow 21 -6 19 -7 93 93 SSE 12 19 30.02 1017 2 2 0.00 0.00
4:53 pm 16:53 Cloudy with Light Snow 22 -5.6 20 -6.7 92 92 S 13 20 29.98 1015 2 3 0.00 0.00
5:02 pm 17:02 Cloudy with Light Snow 22 -5.6 20 -6.7 92 92 S 12 19 30.02 1017 2 3 0.00 0.00
5:09 pm 17:09 Cloudy with Light Snow 22 -5.6 20 -6.7 92 92 S 12 19 30.02 1017 1 2 0.00 0.00
5:17 pm 17:17 Cloudy with Light Snow 22 -5.6 20 -6.7 92 92 S 12 19 30.02 1017 1 2 0.00 0.00
5:32 pm 17:32 Cloudy with Light Snow 22 -5.6 20 -6.7 92 92 S 10 17 30.02 1017 2 2 0.00 0.00
5:53 pm 17:53 Cloudy with Light Snow 22 -5.6 20 -6.7 92 92 S 7 11 29.99 1016 3 4 0.01 0.25
6:02 pm 18:02 Cloudy with Light Snow 22 -5.6 20 -6.7 92 92 S 9 15 30.03 1017 3 5 0.00 0.00
6:17 pm 18:17 Cloudy with Light Snow 22 -5.6 20 -6.7 92 92 S 9 15 30.04 1017 7 11 0.00 0.00
6:30 pm 18:30 Cloudy with Light Snow 22 -5.6 20 -6.7 92 92 S 9 15 30.04 1017 2 3 0.00 0.00
6:40 pm 18:40 Cloudy with Light Snow 21 -6.1 19 -7.2 92 92 S 10 17 30.04 1017 2 3 0.00 0.00
6:53 pm 18:53 Cloudy with Light Snow 21 -6.1 19 -7.2 92 92 S 8 13 30.01 1016 3 4 0.01 0.25
7:02 pm 19:02 Cloudy with Light Snow 21 -6.1 19 -7.2 92 92 S 9 15 30.05 1018 4 6 0.00 0.00
7:26 pm 19:26 Cloudy with Light Snow 21 -6.1 19 -7.2 92 92 S 7 11 30.05 1018 3 4 0.00 0.00
7:34 pm 19:34 Cloudy with Light Snow 21 -6.1 19 -7.2 92 92 S 10 17 30.05 1018 3 5 0.00 0.00
7:44 pm 19:44 Cloudy with Light Snow 21 -6.1 19 -7.2 92 92 S 7 11 30.05 1018 3 4 0.00 0.00
7:53 pm 19:53 Cloudy with Light Snow 20 -6.7 19 -7.2 96 96 S 8 13 30.01 1016 3 5 0.00 0.00
8:31 pm 20:31 Cloudy with Light Snow 20 -6.7 19 -7.2 96 96 S 6 9 30.06 1018 3 4 0.00 0.00
8:39 pm 20:39 Cloudy with Light Snow 20 -6.7 19 -7.2 96 96 S 6 9 30.06 1018 4 6 0.00 0.00
8:53 pm 20:53 Cloudy with Light Snow 20 -6.7 18 -7.8 92 92 S 6 9 30.01 1016 5 8 0.00 0.00
9:06 pm 21:06 Cloudy 20 -6.7 18 -7.8 92 92 S 6 9 30.06 1018 9 14 0.00 0.00
9:53 pm 21:53 Cloudy 21 -6.1 19 -7.2 92 92 SSW 5 7 30.03 1017 10 16 0.00 0.00
10:21 pm 22:21 Cloudy 21 -6.1 19 -7.2 92 92 SW 5 7 30.07 1018 10 16 0.00 0.00
10:53 pm 22:53 Cloudy 21 -6.1 19 -7.2 92 92 WSW 3 6 30.03 1017 10 16 0.00 0.00
11:07 pm 23:07 Cloudy with Mist and Fog 21 -6.1 19 -7.2 92 92 WSW 5 7 30.08 1019 6 10 0.00 0.00
11:53 pm 23:53 Cloudy 21 -6.1 20 -6.7 96 96 WSW 3 6 30.04 1017 7 11 0.00 0.00

Powered by AerisWeather